NORTHERN QUEENS  -  Air Quality Alert Air Quality Alert        SOUTHERN QUEENS  -  Air Quality Alert Air Quality Alert      

Active alerts

Northern Queens
  Details for Northern Queens Air Quality Alert
Southern Queens
  Details for Southern Queens Air Quality Alert


WXM80 ListenWXM80 Stop

You find our weather info also at:

UK Metoffice

WeatherCloud

Weather Underground

Northeastern Weather Network

AWEKAS

Citizen Weather Observer Program (CWOP)

HAMweather, WeatherForYou, PWS Weather


Weather Underground History page Text

Daily Summary for April 24, 2017 Units:  English    Metric   Both
« Previous Day
Next Day »
Daily Weekly Monthly Yearly Custom
  High: Low: Average:
Temperature: 54.8 °F 40.7 °F 48.9 °F
Dew Point: 49.9 °F 38.6 °F 45.2 °F
Humidity: 97 % 73 % 87 %
Wind Speed: 7.2 mph 0.0 mph 1.5 mph
Wind Gust: 12.7 mph - -
Wind:- - East
Pressure: 30.16 in 30.08 in -
Precipitation: 0.01 in    
Historical Graphs
 
 
Tabular Data for April 24, 2017
Time Temperature Dew Point Pressure Wind Wind Speed Wind Gust Humidity Rainfall Rate (Hourly)
00:03 46.9 °F 42.6 °F 30.11 in Calm     85 % 0.00 in
00:08 46.8 °F 42.2 °F 30.11 in Calm     84 % 0.00 in
00:13 46.7 °F 42.4 °F 30.12 in Calm     85 % 0.00 in
00:18 46.6 °F 42.6 °F 30.11 in Calm     86 % 0.00 in
00:23 46.5 °F 42.5 °F 30.12 in Calm     86 % 0.00 in
00:28 46.4 °F 42.4 °F 30.11 in Calm     86 % 0.00 in
00:36 46.1 °F 42.1 °F 30.11 in Calm     86 % 0.00 in
00:41 46.0 °F 42.0 °F 30.11 in Calm     86 % 0.00 in
00:46 45.9 °F 41.9 °F 30.11 in Calm     86 % 0.00 in
00:51 45.8 °F 41.9 °F 30.11 in Calm     86 % 0.00 in
00:56 45.7 °F 41.8 °F 30.11 in Calm     86 % 0.00 in
01:01 45.6 °F 42.0 °F 30.11 in Calm     87 % 0.00 in
01:06 45.4 °F 41.8 °F 30.11 in WSW 0.1 mph 1.2 mph 87 % 0.00 in
01:11 45.3 °F 41.7 °F 30.11 in Calm     87 % 0.00 in
01:16 45.2 °F 41.6 °F 30.11 in Calm     87 % 0.00 in
01:21 45.1 °F 41.5 °F 30.11 in Calm     87 % 0.00 in
01:26 44.9 °F 41.3 °F 30.11 in Calm     87 % 0.00 in
01:31 44.8 °F 41.5 °F 30.11 in Calm     88 % 0.00 in
01:36 44.7 °F 41.4 °F 30.11 in Calm     88 % 0.00 in
01:41 44.5 °F 41.2 °F 30.11 in Calm     88 % 0.00 in
01:46 44.4 °F 41.4 °F 30.10 in Calm     89 % 0.00 in
01:51 44.2 °F 41.2 °F 30.10 in Calm     89 % 0.00 in
01:56 44.1 °F 41.1 °F 30.10 in Calm     89 % 0.00 in
02:01 44.0 °F 41.0 °F 30.09 in Calm     89 % 0.00 in
02:06 43.8 °F 40.8 °F 30.10 in Calm     89 % 0.00 in
02:11 43.7 °F 40.7 °F 30.10 in Calm     89 % 0.00 in
02:16 43.6 °F 40.6 °F 30.09 in Calm     89 % 0.00 in
02:21 43.4 °F 40.4 °F 30.09 in Calm     89 % 0.00 in
02:26 43.3 °F 40.3 °F 30.09 in Calm     89 % 0.00 in
02:31 43.2 °F 40.2 °F 30.09 in Calm     89 % 0.00 in
02:36 43.1 °F 40.4 °F 30.09 in Calm     90 % 0.00 in
02:42 43.0 °F 40.3 °F 30.09 in Calm     90 % 0.00 in
02:47 42.9 °F 40.2 °F 30.09 in Calm     90 % 0.00 in
02:52 42.8 °F 40.1 °F 30.09 in Calm     90 % 0.00 in
02:57 42.7 °F 40.0 °F 30.08 in Calm     90 % 0.00 in
03:02 42.6 °F 39.9 °F 30.08 in Calm     90 % 0.00 in
03:07 42.5 °F 39.8 °F 30.08 in Calm     90 % 0.00 in
03:12 42.3 °F 39.6 °F 30.09 in Calm     90 % 0.00 in
03:17 42.2 °F 39.5 °F 30.09 in Calm     90 % 0.00 in
03:22 42.1 °F 39.7 °F 30.09 in Calm     91 % 0.00 in
03:27 42.0 °F 39.6 °F 30.09 in Calm     91 % 0.00 in
03:32 41.9 °F 39.5 °F 30.09 in Calm     91 % 0.00 in
03:37 41.8 °F 39.4 °F 30.09 in WSW 0.3 mph 1.2 mph 91 % 0.00 in
03:42 41.6 °F 39.2 °F 30.09 in Calm   1.2 mph 91 % 0.00 in
03:47 41.5 °F 39.1 °F 30.09 in Calm   1.0 mph 91 % 0.00 in
03:52 41.5 °F 39.1 °F 30.09 in Calm   1.0 mph 91 % 0.00 in
03:54 41.5 °F 39.1 °F 30.09 in WSW 0.1 mph 1.2 mph 91 % 0.00 in
03:59 41.4 °F 39.3 °F 30.09 in WSW 0.1 mph 1.2 mph 92 % 0.00 in
04:04 41.4 °F 39.3 °F 30.09 in Calm     92 % 0.00 in
04:09 41.4 °F 39.3 °F 30.09 in Calm     92 % 0.00 in
04:14 41.4 °F 39.3 °F 30.09 in Calm     92 % 0.00 in
04:19 41.4 °F 39.3 °F 30.09 in Calm     92 % 0.00 in
04:24 41.4 °F 39.3 °F 30.09 in Calm     92 % 0.00 in
04:29 41.3 °F 39.2 °F 30.10 in Calm     92 % 0.00 in
04:34 41.3 °F 39.2 °F 30.10 in Calm     92 % 0.00 in
04:39 41.2 °F 39.1 °F 30.09 in Calm     92 % 0.00 in
04:44 41.1 °F 39.0 °F 30.09 in Calm     92 % 0.00 in
04:49 41.0 °F 38.9 °F 30.09 in Calm     92 % 0.00 in
04:54 40.9 °F 38.8 °F 30.09 in Calm   1.2 mph 92 % 0.00 in
04:59 40.8 °F 38.7 °F 30.10 in Calm   1.0 mph 92 % 0.00 in
05:04 40.7 °F 38.6 °F 30.10 in WSW 0.1 mph 1.2 mph 92 % 0.00 in
05:09 40.8 °F 38.9 °F 30.10 in WSW 0.2 mph 1.0 mph 93 % 0.00 in
05:14 40.8 °F 38.9 °F 30.10 in WSW 0.2 mph 1.2 mph 93 % 0.00 in
05:19 40.8 °F 38.9 °F 30.11 in Calm     93 % 0.00 in
05:24 40.9 °F 39.3 °F 30.11 in Calm   1.2 mph 94 % 0.00 in
05:29 41.1 °F 39.5 °F 30.10 in WSW 0.9 mph 2.0 mph 94 % 0.00 in
05:34 41.1 °F 39.5 °F 30.11 in WSW 1.7 mph 3.5 mph 94 % 0.00 in
05:39 41.2 °F 39.6 °F 30.11 in WSW 0.1 mph 1.2 mph 94 % 0.00 in
05:44 41.2 °F 39.6 °F 30.11 in WSW 0.3 mph 2.3 mph 94 % 0.00 in
05:49 41.3 °F 39.7 °F 30.11 in Calm     94 % 0.00 in
05:54 41.4 °F 40.1 °F 30.11 in Calm     95 % 0.00 in
05:59 41.4 °F 40.1 °F 30.11 in Calm     95 % 0.00 in
06:04 41.5 °F 40.2 °F 30.11 in Calm     95 % 0.00 in
06:09 41.5 °F 40.2 °F 30.11 in Calm     95 % 0.00 in
06:14 41.4 °F 40.1 °F 30.12 in Calm     95 % 0.00 in
06:19 41.4 °F 40.1 °F 30.12 in Calm     95 % 0.00 in
06:24 41.5 °F 40.2 °F 30.12 in Calm     95 % 0.00 in
06:29 41.5 °F 40.2 °F 30.12 in Calm     95 % 0.00 in
06:34 41.6 °F 40.3 °F 30.12 in Calm     95 % 0.00 in
06:39 41.7 °F 40.4 °F 30.12 in Calm     95 % 0.00 in
06:44 42.0 °F 40.7 °F 30.12 in Calm     95 % 0.00 in
06:49 42.3 °F 41.0 °F 30.12 in Calm     95 % 0.00 in
06:54 42.6 °F 41.3 °F 30.12 in Calm     95 % 0.00 in
06:59 43.1 °F 42.0 °F 30.13 in WSW 0.3 mph 1.2 mph 96 % 0.00 in
07:04 43.6 °F 42.5 °F 30.13 in Calm     96 % 0.00 in
07:09 44.1 °F 43.0 °F 30.13 in Calm     96 % 0.00 in
07:15 44.7 °F 43.6 °F 30.13 in Calm     96 % 0.00 in
07:20 46.0 °F 45.2 °F 30.13 in Calm     97 % 0.00 in
07:25 46.7 °F 45.9 °F 30.14 in SE 0.5 mph 2.3 mph 97 % 0.00 in
07:30 47.2 °F 46.4 °F 30.14 in SE 0.5 mph 3.5 mph 97 % 0.00 in
07:35 47.7 °F 46.9 °F 30.14 in SE 0.4 mph 5.8 mph 97 % 0.00 in
07:40 47.9 °F 47.1 °F 30.13 in SSE 1.9 mph 3.5 mph 97 % 0.00 in
07:45 48.1 °F 47.0 °F 30.14 in SE 3.6 mph 5.8 mph 96 % 0.00 in
07:50 48.2 °F 47.1 °F 30.14 in SSW 1.4 mph 3.5 mph 96 % 0.00 in
07:55 48.2 °F 46.8 °F 30.15 in SW 0.6 mph 3.5 mph 95 % 0.00 in
08:00 48.3 °F 47.2 °F 30.16 in SW 0.1 mph 1.2 mph 96 % 0.00 in
08:10 48.6 °F 47.2 °F 30.16 in SSE 0.2 mph 1.0 mph 95 % 0.00 in
08:15 48.7 °F 47.3 °F 30.16 in Calm   1.2 mph 95 % 0.00 in
08:25 49.2 °F 47.8 °F 30.16 in SW 1.1 mph 2.3 mph 95 % 0.00 in
08:30 49.7 °F 48.3 °F 30.16 in SW 0.2 mph 1.0 mph 95 % 0.00 in
08:35 50.0 °F 48.6 °F 30.16 in Calm     95 % 0.00 in
08:40 50.4 °F 49.0 °F 30.15 in SE 1.6 mph 3.5 mph 95 % 0.00 in
08:45 50.6 °F 48.4 °F 30.15 in SSE 0.2 mph 1.2 mph 92 % 0.00 in
08:50 51.0 °F 48.5 °F 30.16 in Calm   1.2 mph 91 % 0.00 in
08:55 51.7 °F 49.2 °F 30.16 in Calm   2.3 mph 91 % 0.00 in
09:00 52.3 °F 49.5 °F 30.16 in SSE 0.8 mph 2.3 mph 90 % 0.00 in
09:05 53.1 °F 49.9 °F 30.15 in NE 2.5 mph 3.5 mph 89 % 0.00 in
09:10 53.4 °F 49.6 °F 30.16 in NE 1.5 mph 3.5 mph 87 % 0.00 in
09:15 53.5 °F 49.4 °F 30.15 in NNE 2.3 mph 3.5 mph 86 % 0.00 in
09:21 53.7 °F 49.6 °F 30.15 in ENE 0.7 mph 2.3 mph 86 % 0.00 in
09:26 53.9 °F 49.5 °F 30.16 in North 0.4 mph 3.5 mph 85 % 0.00 in
09:31 53.8 °F 49.1 °F 30.16 in NNE 1.8 mph 4.6 mph 84 % 0.00 in
09:36 53.9 °F 49.5 °F 30.15 in NNE 0.4 mph 2.3 mph 85 % 0.00 in
09:41 53.9 °F 49.2 °F 30.16 in NNE 1.8 mph 3.5 mph 84 % 0.00 in
09:46 53.9 °F 49.2 °F 30.16 in NNE 0.7 mph 3.5 mph 84 % 0.00 in
09:51 54.3 °F 49.9 °F 30.16 in NNE 3.7 mph 4.6 mph 85 % 0.00 in
09:56 54.6 °F 49.9 °F 30.16 in NNE 2.6 mph 3.5 mph 84 % 0.00 in
10:06 54.6 °F 49.2 °F 30.15 in ENE 2.2 mph 3.5 mph 82 % 0.00 in
10:11 54.4 °F 49.3 °F 30.16 in NNE 3.2 mph 4.6 mph 83 % 0.00 in
10:16 54.3 °F 48.9 °F 30.16 in ENE 2.4 mph 3.5 mph 82 % 0.00 in
10:21 54.0 °F 48.6 °F 30.16 in NE 2.1 mph 3.5 mph 82 % 0.00 in
10:26 53.7 °F 48.7 °F 30.16 in ENE 2.0 mph 2.3 mph 83 % 0.00 in
10:31 53.3 °F 48.3 °F 30.16 in ENE 1.1 mph 3.5 mph 83 % 0.00 in
10:36 53.3 °F 48.6 °F 30.16 in ENE 2.2 mph 3.5 mph 84 % 0.00 in
10:41 53.2 °F 48.5 °F 30.16 in ENE 1.5 mph 3.5 mph 84 % 0.00 in
10:46 53.1 °F 48.4 °F 30.16 in NE 1.4 mph 2.3 mph 84 % 0.00 in
10:51 53.0 °F 48.3 °F 30.16 in NE 1.8 mph 3.5 mph 84 % 0.00 in
10:56 53.0 °F 48.3 °F 30.15 in ENE 4.2 mph 6.9 mph 84 % 0.00 in
11:01 52.7 °F 48.3 °F 30.16 in NE 2.7 mph 3.5 mph 85 % 0.00 in
11:06 52.7 °F 48.3 °F 30.16 in ENE 3.0 mph 4.0 mph 85 % 0.00 in
11:12 52.7 °F 48.6 °F 30.16 in NNE 1.7 mph 3.5 mph 86 % 0.00 in
11:17 52.6 °F 48.2 °F 30.15 in ENE 2.6 mph 4.6 mph 85 % 0.00 in
11:22 52.6 °F 48.5 °F 30.16 in ENE 4.2 mph 4.6 mph 86 % 0.00 in
11:27 52.3 °F 48.2 °F 30.16 in NE 3.2 mph 4.6 mph 86 % 0.00 in
11:32 52.3 °F 48.2 °F 30.16 in ENE 2.8 mph 5.0 mph 86 % 0.00 in
11:37 52.2 °F 48.1 °F 30.16 in ENE 2.3 mph 3.5 mph 86 % 0.00 in
11:42 52.1 °F 48.0 °F 30.16 in ENE 1.5 mph 3.5 mph 86 % 0.00 in
11:47 52.2 °F 48.1 °F 30.16 in ENE 1.4 mph 3.0 mph 86 % 0.00 in
11:52 52.1 °F 47.7 °F 30.16 in ENE 3.9 mph 6.9 mph 85 % 0.00 in
11:57 52.0 °F 47.6 °F 30.16 in ENE 3.5 mph 5.0 mph 85 % 0.00 in
12:02 51.9 °F 47.5 °F 30.16 in ENE 2.6 mph 3.5 mph 85 % 0.00 in
12:07 51.8 °F 47.4 °F 30.15 in ENE 2.6 mph 6.9 mph 85 % 0.00 in
12:12 51.7 °F 47.0 °F 30.15 in ENE 3.3 mph 4.6 mph 84 % 0.00 in
12:17 51.7 °F 47.3 °F 30.15 in ENE 2.0 mph 5.0 mph 85 % 0.00 in
12:22 51.7 °F 47.3 °F 30.15 in ENE 1.0 mph 5.0 mph 85 % 0.00 in
12:27 52.0 °F 47.6 °F 30.15 in ENE 1.8 mph 3.5 mph 85 % 0.00 in
12:32 52.3 °F 47.3 °F 30.15 in ENE 2.0 mph 5.0 mph 83 % 0.00 in
12:37 52.6 °F 46.6 °F 30.15 in ENE 2.0 mph 5.0 mph 80 % 0.00 in
12:42 53.0 °F 46.0 °F 30.15 in ENE 3.0 mph 5.0 mph 77 % 0.00 in
12:47 53.3 °F 46.0 °F 30.15 in ENE 2.0 mph 3.0 mph 76 % 0.00 in
12:52 53.7 °F 45.3 °F 30.14 in ENE 2.0 mph 5.0 mph 73 % 0.00 in
12:57 53.9 °F 45.4 °F 30.13 in NE 5.0 mph 6.9 mph 73 % 0.00 in
13:02 53.9 °F 45.4 °F 30.13 in ENE 4.4 mph 6.9 mph 73 % 0.00 in
13:07 54.0 °F 46.3 °F 30.13 in ENE 3.4 mph 6.9 mph 75 % 0.00 in
13:12 54.2 °F 47.8 °F 30.13 in NNE 2.4 mph 3.5 mph 79 % 0.00 in
13:17 54.6 °F 48.6 °F 30.13 in NNE 4.6 mph 8.1 mph 80 % 0.00 in
13:22 54.7 °F 49.0 °F 30.13 in North 2.7 mph 4.0 mph 81 % 0.00 in
13:27 54.8 °F 49.1 °F 30.13 in NE 2.1 mph 3.5 mph 81 % 0.00 in
13:32 54.8 °F 49.4 °F 30.13 in ENE 1.8 mph 4.6 mph 82 % 0.00 in
13:37 54.4 °F 48.4 °F 30.14 in ENE 2.0 mph 3.5 mph 80 % 0.00 in
13:42 54.1 °F 47.7 °F 30.14 in ENE 1.0 mph 2.3 mph 79 % 0.00 in
13:47 54.1 °F 47.7 °F 30.13 in North 2.0 mph 4.0 mph 79 % 0.00 in
13:48 54.1 °F 47.7 °F 30.13 in NNE 3.3 mph 5.0 mph 79 % 0.00 in
13:53 54.1 °F 47.7 °F 30.13 in ENE 3.4 mph 5.0 mph 79 % 0.00 in
13:58 54.2 °F 48.5 °F 30.13 in North 1.6 mph 4.6 mph 81 % 0.00 in
14:03 54.3 °F 48.9 °F 30.14 in NNE 1.5 mph 3.5 mph 82 % 0.00 in
14:08 54.3 °F 48.6 °F 30.13 in ENE 1.5 mph 4.6 mph 81 % 0.00 in
14:13 53.9 °F 47.9 °F 30.13 in NE 3.3 mph 4.6 mph 80 % 0.00 in
14:18 53.7 °F 47.7 °F 30.13 in ENE 4.7 mph 6.9 mph 80 % 0.00 in
14:23 53.4 °F 47.7 °F 30.13 in ENE 3.7 mph 6.9 mph 81 % 0.00 in
14:28 53.1 °F 47.1 °F 30.13 in ENE 1.2 mph 3.5 mph 80 % 0.00 in
14:33 53.0 °F 47.0 °F 30.13 in NE 2.2 mph 3.5 mph 80 % 0.00 in
14:38 53.0 °F 45.6 °F 30.13 in East 1.9 mph 4.6 mph 76 % 0.00 in
14:43 52.8 °F 45.8 °F 30.13 in ENE 2.1 mph 3.5 mph 77 % 0.00 in
14:48 52.8 °F 45.1 °F 30.13 in ENE 1.6 mph 3.5 mph 75 % 0.00 in
14:53 52.8 °F 45.4 °F 30.13 in ENE 1.2 mph 2.3 mph 76 % 0.00 in
14:58 52.9 °F 45.2 °F 30.13 in East 2.3 mph 3.5 mph 75 % 0.00 in
15:03 52.9 °F 45.5 °F 30.13 in East 1.4 mph 3.5 mph 76 % 0.00 in
15:08 53.0 °F 45.3 °F 30.13 in East 0.9 mph 3.0 mph 75 % 0.00 in
15:13 53.2 °F 45.5 °F 30.13 in East 2.0 mph 3.5 mph 75 % 0.00 in
15:18 53.3 °F 45.6 °F 30.13 in East 1.3 mph 2.3 mph 75 % 0.00 in
15:23 53.4 °F 45.3 °F 30.12 in ENE 1.5 mph 3.5 mph 74 % 0.00 in
15:28 53.5 °F 45.4 °F 30.12 in ENE 2.2 mph 3.5 mph 74 % 0.00 in
15:40 53.5 °F 45.8 °F 30.12 in ENE 3.0 mph 5.0 mph 75 % 0.00 in
15:45 53.4 °F 46.0 °F 30.12 in ENE 2.0 mph 5.0 mph 76 % 0.00 in
15:50 53.3 °F 46.3 °F 30.12 in ENE 3.0 mph 5.0 mph 77 % 0.00 in
15:55 53.2 °F 46.2 °F 30.12 in ENE 1.0 mph 5.0 mph 77 % 0.00 in
16:05 53.2 °F 47.2 °F 30.12 in ENE 1.0 mph 3.0 mph 80 % 0.00 in
16:10 53.3 °F 47.3 °F 30.11 in ENE 1.0 mph 3.0 mph 80 % 0.00 in
16:15 53.3 °F 47.3 °F 30.11 in ENE 2.0 mph 3.0 mph 80 % 0.00 in
16:20 53.4 °F 47.4 °F 30.11 in Calm   3.0 mph 80 % 0.00 in
16:25 53.5 °F 47.5 °F 30.11 in NNE 3.0 mph 6.0 mph 80 % 0.00 in
16:30 53.5 °F 47.5 °F 30.12 in NNE 2.0 mph 5.0 mph 80 % 0.00 in
16:35 53.4 °F 47.0 °F 30.12 in NNE 3.0 mph 7.0 mph 79 % 0.00 in
16:40 53.4 °F 47.4 °F 30.12 in NNE 3.0 mph 6.0 mph 80 % 0.00 in
16:45 53.3 °F 47.3 °F 30.12 in NNE 2.0 mph 5.0 mph 80 % 0.00 in
16:50 53.2 °F 47.2 °F 30.12 in North 2.0 mph 4.0 mph 80 % 0.00 in
16:55 53.1 °F 47.4 °F 30.12 in Calm   3.0 mph 81 % 0.00 in
17:05 53.0 °F 47.3 °F 30.12 in Calm   1.0 mph 81 % 0.00 in
17:10 52.9 °F 47.2 °F 30.13 in North 1.0 mph 2.0 mph 81 % 0.00 in
17:16 52.7 °F 47.0 °F 30.12 in ENE 3.0 mph 3.5 mph 81 % 0.00 in
17:21 52.7 °F 47.4 °F 30.11 in ENE 1.1 mph 2.3 mph 82 % 0.00 in
17:26 52.7 °F 47.4 °F 30.12 in ENE 0.8 mph 2.3 mph 82 % 0.00 in
17:31 52.6 °F 47.3 °F 30.11 in ENE 3.1 mph 4.6 mph 82 % 0.00 in
17:36 52.5 °F 47.2 °F 30.11 in NE 3.3 mph 5.0 mph 82 % 0.00 in
17:42 52.4 °F 47.1 °F 30.12 in ENE 2.3 mph 4.6 mph 82 % 0.00 in
17:47 52.2 °F 47.2 °F 30.12 in ENE 2.0 mph 3.5 mph 83 % 0.00 in
17:51 52.1 °F 47.4 °F 30.11 in ENE 2.1 mph 3.0 mph 84 % 0.00 in
17:56 52.0 °F 47.3 °F 30.11 in East 2.8 mph 3.5 mph 84 % 0.00 in
18:02 51.9 °F 47.5 °F 30.12 in ENE 2.1 mph 3.5 mph 85 % 0.00 in
18:07 51.7 °F 47.3 °F 30.12 in East 2.8 mph 4.6 mph 85 % 0.00 in
18:12 51.6 °F 47.5 °F 30.12 in East 0.9 mph 2.3 mph 86 % 0.00 in
18:17 51.5 °F 47.5 °F 30.11 in ENE 1.7 mph 2.3 mph 86 % 0.00 in
18:22 51.4 °F 47.0 °F 30.11 in ENE 0.8 mph 3.0 mph 85 % 0.00 in
18:27 51.4 °F 47.0 °F 30.12 in ENE 0.8 mph 2.3 mph 85 % 0.00 in
18:32 51.3 °F 46.9 °F 30.12 in ENE 0.8 mph 2.3 mph 85 % 0.00 in
18:37 51.2 °F 47.2 °F 30.12 in Calm     86 % 0.00 in
18:42 51.2 °F 47.5 °F 30.12 in ENE 1.0 mph 3.5 mph 87 % 0.00 in
18:47 51.1 °F 47.4 °F 30.12 in ENE 0.7 mph 1.2 mph 87 % 0.00 in
18:52 51.0 °F 47.6 °F 30.12 in ENE 0.5 mph 1.2 mph 88 % 0.00 in
18:57 51.0 °F 47.6 °F 30.12 in Calm     88 % 0.00 in
19:02 51.0 °F 47.9 °F 30.12 in Calm     89 % 0.00 in
19:08 50.9 °F 47.8 °F 30.13 in Calm     89 % 0.00 in
19:13 50.9 °F 47.8 °F 30.13 in ENE 0.2 mph 1.2 mph 89 % 0.00 in
19:18 50.9 °F 47.8 °F 30.13 in NE 1.5 mph 3.5 mph 89 % 0.00 in
19:23 50.8 °F 47.7 °F 30.13 in NE 1.4 mph 3.5 mph 89 % 0.00 in
19:28 50.7 °F 47.6 °F 30.12 in Calm   1.2 mph 89 % 0.00 in
19:33 50.6 °F 47.8 °F 30.12 in NE 0.3 mph 1.2 mph 90 % 0.00 in
19:38 50.5 °F 47.7 °F 30.12 in NE 0.2 mph 2.3 mph 90 % 0.01 in
19:43 50.5 °F 47.7 °F 30.12 in NE 0.9 mph 3.5 mph 90 % 0.01 in
19:48 50.4 °F 47.6 °F 30.12 in Calm   1.2 mph 90 % 0.01 in
19:53 50.4 °F 47.9 °F 30.11 in Calm     91 % 0.01 in
19:58 50.3 °F 47.8 °F 30.11 in Calm     91 % 0.01 in
20:03 50.3 °F 47.8 °F 30.11 in NE 0.1 mph 2.3 mph 91 % 0.01 in
20:08 50.3 °F 47.8 °F 30.11 in Calm     91 % 0.01 in
20:13 50.2 °F 47.7 °F 30.11 in Calm     91 % 0.01 in
20:18 50.2 °F 47.7 °F 30.12 in NE 0.1 mph 1.2 mph 91 % 0.01 in
20:23 50.2 °F 47.7 °F 30.11 in Calm     91 % 0.01 in
20:28 50.2 °F 47.7 °F 30.11 in Calm     91 % 0.01 in
20:33 50.2 °F 47.4 °F 30.11 in Calm     90 % 0.01 in
20:38 50.2 °F 47.4 °F 30.11 in NE 1.4 mph 2.3 mph 90 % 0.00 in
20:43 50.2 °F 47.4 °F 30.11 in NE 0.1 mph 1.2 mph 90 % 0.00 in
20:48 50.2 °F 47.4 °F 30.12 in NE 1.7 mph 3.0 mph 90 % 0.00 in
20:53 50.2 °F 46.5 °F 30.12 in ENE 2.4 mph 3.5 mph 87 % 0.00 in
20:58 50.2 °F 46.2 °F 30.12 in East 3.2 mph 5.0 mph 86 % 0.00 in
21:03 50.3 °F 46.3 °F 30.12 in ENE 2.6 mph 3.5 mph 86 % 0.00 in
21:09 50.3 °F 46.0 °F 30.11 in ENE 3.4 mph 4.6 mph 85 % 0.00 in
21:14 50.3 °F 46.3 °F 30.11 in ENE 3.2 mph 4.6 mph 86 % 0.00 in
21:16 50.3 °F 46.3 °F 30.11 in ENE 4.0 mph 6.0 mph 86 % 0.00 in
21:21 50.2 °F 46.5 °F 30.11 in ENE 2.7 mph 3.5 mph 87 % 0.00 in
21:26 50.1 °F 46.7 °F 30.12 in ENE 2.7 mph 4.0 mph 88 % 0.00 in
21:31 50.0 °F 46.6 °F 30.12 in ENE 2.3 mph 3.5 mph 88 % 0.00 in
21:37 49.9 °F 46.8 °F 30.12 in ENE 7.2 mph 12.7 mph 89 % 0.00 in
21:42 49.7 °F 46.9 °F 30.12 in ENE 6.4 mph 11.5 mph 90 % 0.00 in
21:47 49.6 °F 46.8 °F 30.12 in ENE 4.1 mph 5.8 mph 90 % 0.00 in
21:52 49.5 °F 47.0 °F 30.12 in East 4.2 mph 6.9 mph 91 % 0.00 in
21:57 49.4 °F 46.9 °F 30.12 in ENE 3.4 mph 4.6 mph 91 % 0.00 in
22:02 49.3 °F 46.8 °F 30.12 in East 4.4 mph 6.9 mph 91 % 0.00 in
22:07 49.2 °F 46.7 °F 30.12 in ENE 4.0 mph 6.9 mph 91 % 0.00 in
22:12 49.1 °F 46.6 °F 30.12 in East 5.0 mph 8.1 mph 91 % 0.00 in
22:17 49.1 °F 46.9 °F 30.12 in ENE 4.2 mph 5.8 mph 92 % 0.00 in
22:22 49.0 °F 46.8 °F 30.12 in East 3.6 mph 6.0 mph 92 % 0.00 in
22:27 48.9 °F 46.7 °F 30.12 in ENE 3.5 mph 6.9 mph 92 % 0.00 in
22:32 48.9 °F 46.7 °F 30.12 in ENE 3.7 mph 5.8 mph 92 % 0.00 in
22:37 48.9 °F 46.7 °F 30.12 in ENE 4.3 mph 6.9 mph 92 % 0.00 in
22:42 48.8 °F 46.6 °F 30.12 in East 4.9 mph 6.9 mph 92 % 0.00 in
22:47 48.8 °F 46.6 °F 30.12 in ENE 3.5 mph 4.6 mph 92 % 0.00 in
22:52 48.8 °F 46.6 °F 30.12 in ENE 3.2 mph 3.5 mph 92 % 0.00 in
22:57 48.8 °F 46.9 °F 30.12 in East 3.9 mph 6.0 mph 93 % 0.00 in
23:02 48.7 °F 46.8 °F 30.12 in East 3.8 mph 4.6 mph 93 % 0.00 in
23:07 48.7 °F 46.8 °F 30.12 in East 3.8 mph 6.9 mph 93 % 0.00 in
23:12 48.7 °F 46.8 °F 30.12 in East 3.6 mph 6.0 mph 93 % 0.00 in
23:18 48.7 °F 46.8 °F 30.12 in ENE 3.6 mph 4.6 mph 93 % 0.00 in
23:23 48.6 °F 46.7 °F 30.11 in East 3.3 mph 5.0 mph 93 % 0.00 in
23:28 48.6 °F 46.7 °F 30.11 in East 3.6 mph 5.8 mph 93 % 0.00 in
23:33 48.6 °F 46.7 °F 30.11 in ENE 4.7 mph 6.9 mph 93 % 0.00 in
23:38 48.5 °F 46.9 °F 30.11 in East 4.2 mph 5.8 mph 94 % 0.00 in
23:43 48.5 °F 46.9 °F 30.11 in ENE 4.6 mph 5.8 mph 94 % 0.00 in
23:48 48.5 °F 46.9 °F 30.11 in East 4.2 mph 5.8 mph 94 % 0.00 in
23:53 48.5 °F 46.9 °F 30.11 in East 3.7 mph 5.8 mph 94 % 0.00 in
23:58 48.4 °F 46.8 °F 30.11 in East 4.0 mph 8.1 mph 94 % 0.00 in
Crab Meadow Weather
Compliments of Weather Underground - 3 mb

Script developed by  Jim McMurry - jmcmurry@mwt.net Adapted for the template by  Wim van der Kuil - Leuven-Template.eu

Weather Terms: Heat Index - The apparent temperature that describes the combined effect of high temperatures and high levels of humidity, which reduces the body's ability to cool itself.